Berlin, NH

11:40 AM EST on November 18, 2017 (GMT -0500)
Berlin Municipal

Weather History for KBML - July, 2012

Change the Weather History Date:

Monday, July 23, 2012

  Actual Average Record
Temperature  
Mean Temperature 71 °F -  
Max Temperature 88 °F 74 °F 88 °F (2001)
Min Temperature 55 °F 48 °F 39 °F (1997)
Cooling Degree Days 6    
Growing Degree Days 21 (Base 50)    
Moisture  
Dew Point 62 °F    
Average Humidity 75    
Maximum Humidity 96    
Minimum Humidity 39    
Precipitation  
Precipitation 0.32 in - - ()
Sea Level Pressure  
Sea Level Pressure 29.90 in    
Wind  
Wind Speed 2 mph (South)    
Max Wind Speed 9 mph    
Max Gust Speed 22 mph    
Visibility 9 miles    
Events Rain , Thunderstorm    
Averages and records for this station are not official NWS values.
T = Trace of Precipitation, MM = Missing Value Source: NWS Daily Summary

Daily Weather History Graph

Daily Weather History Graph

Search for Another Location

Airport or City:

Trip Planner

Search our weather history database for the weather conditions in past years. The results will help you decide how hot, cold, wet, or windy it might be!

Date:

Astronomy

Jul. 23, 2012 Rise Set
Actual Time 5:22 AM EDT 8:19 PM EDT
Civil Twilight 4:47 AM EDT 8:54 PM EDT
Nautical Twilight 4:03 AM EDT 9:38 PM EDT
Astronomical Twilight 3:11 AM EDT 10:29 PM EDT
Moon 10:24 AM EDT (7/23) 10:16 PM EDT (7/23)
Length of Visible Light 16h 06m
Length of Day
14h 57m
Waxing Crescent, 21% of the Moon is Illuminated
Jul 23
Waxing Crescent
Jul 26
First Quarter
Aug 1
Full
Aug 9
Last Quarter
Aug 17
New

Hourly Weather History & Observations

Time (EDT) Temp. Heat Index Dew Point Humidity Pressure Visibility Wind Dir Wind Speed Gust Speed Precip Events Conditions
12:52 AM 60.1 °F - 57.9 °F 93% 30.05 in 9.0 mi Calm Calm - N/A   Scattered Clouds
1:52 AM 57.9 °F - 55.9 °F 93% 30.06 in 9.0 mi Calm Calm - N/A   Clear
2:52 AM 55.9 °F - 54.0 °F 93% 30.05 in 8.0 mi Calm Calm - N/A   Clear
3:52 AM 55.0 °F - 54.0 °F 96% 30.04 in 7.0 mi Calm Calm - N/A   Clear
4:52 AM 55.0 °F - 54.0 °F 96% 30.04 in 8.0 mi Calm Calm - N/A   Partly Cloudy
5:52 AM 57.9 °F - 55.9 °F 93% 30.04 in 7.0 mi Calm Calm - N/A   Partly Cloudy
6:52 AM 63.0 °F - 59.0 °F 87% 30.04 in 8.0 mi Calm Calm - N/A   Mostly Cloudy
7:52 AM 66.0 °F - 60.1 °F 81% 30.03 in 10.0 mi Calm Calm - 0.00 in   Partly Cloudy
8:52 AM 73.0 °F - 61.0 °F 66% 30.01 in 10.0 mi Calm Calm - N/A   Partly Cloudy
9:52 AM 78.1 °F - 62.1 °F 58% 29.99 in 10.0 mi Calm Calm - N/A   Partly Cloudy
10:52 AM 80.1 °F 81.7 °F 64.0 °F 58% 29.96 in 10.0 mi Variable 3.5 mph - N/A   Clear
11:52 AM 81.0 °F 82.5 °F 64.0 °F 56% 29.94 in 10.0 mi Variable 3.5 mph - N/A   Partly Cloudy
12:52 PM 82.0 °F 83.4 °F 64.0 °F 54% 29.92 in 10.0 mi South 6.9 mph - N/A   Mostly Cloudy
1:52 PM 82.9 °F 84.4 °F 64.0 °F 53% 29.90 in 10.0 mi SSE 4.6 mph - N/A   Scattered Clouds
2:52 PM 84.9 °F 85.9 °F 63.0 °F 48% 29.87 in 10.0 mi Variable 5.8 mph - N/A   Mostly Cloudy
3:52 PM 87.1 °F 86.5 °F 59.0 °F 39% 29.83 in 10.0 mi WSW 6.9 mph - N/A   Scattered Clouds
4:52 PM 87.1 °F 86.7 °F 60.1 °F 40% 29.80 in 10.0 mi SSW 6.9 mph - N/A   Partly Cloudy
5:52 PM 86.0 °F 86.8 °F 63.0 °F 46% 29.80 in 10.0 mi SW 6.9 mph - N/A   Mostly Cloudy
6:52 PM 82.0 °F 84.1 °F 66.0 °F 58% 29.78 in 10.0 mi Calm Calm - N/A   Partly Cloudy
7:52 PM 73.9 °F - 68.0 °F 82% 29.78 in 8.0 mi Calm Calm - N/A   Clear
8:45 PM 73.4 °F - 68.0 °F 83% 29.78 in 9.0 mi Calm Calm - N/A Thunderstorm Overcast
8:52 PM 73.9 °F - 68.0 °F 82% 29.76 in 9.0 mi Calm Calm - N/A Thunderstorm Overcast
9:28 PM 66.2 °F - 62.6 °F 88% 29.82 in 1.5 mi NW 8.1 mph 21.9 mph 0.19 in Rain , Thunderstorm Heavy Thunderstorms and Rain
9:38 PM 66.2 °F - 62.6 °F 88% 29.83 in 3.0 mi Calm Calm - 0.22 in Rain , Thunderstorm Thunderstorms and Rain
9:52 PM 66.0 °F - 63.0 °F 90% 29.82 in 10.0 mi East 5.8 mph - 0.24 in Rain , Thunderstorm Light Rain
10:29 PM 66.2 °F - 64.4 °F 94% 29.81 in 8.0 mi South 6.9 mph - 0.04 in Rain Light Rain
10:52 PM 66.0 °F - 64.0 °F 93% 29.75 in 7.0 mi SE 9.2 mph - 0.07 in Rain Rain
11:52 PM 66.0 °F - 63.0 °F 90% 29.73 in 10.0 mi Calm Calm - 0.01 in   Partly Cloudy